User: anonymous   Login
Location: Glen Avon
(34.0117°N, 117.4848°W)
Time: 23:32:13
(UTC+00:00)
Language:

Cosmos 2208 Rocket - Orbit

View from above orbital plane
View from above orbital plane
View from above satellite
View from above satellite

Ground track
Ground track

The orbit data is extracted from the following two-line orbital elements,

1 22081U 92053B   21300.56820138  .00000105  00000-0  47209-4 0  9993
2 22081  74.0460  45.8163 0036434 343.1835  16.8105 14.33547712526674
Epoch (UTC): 27 October 2021 13:38:12
Eccentricity: 0.0036434
inclination: 74.0460°
perigee height: 754 km
apogee height: 806 km
right ascension of ascending node: 45.8163°
argument of perigee: 343.1835°
revolutions per day: 14.33547712
mean anomaly at epoch: 16.8105°
orbit number at epoch: 52667

The dashed part of the orbit path shows where the satellite is in the earth's shadow,  

DLR